Location: Im Fang
(46.6019°N, 7.2397°E)
Time: 17:13:59
(UTC+00:00)

FENGYUN 3A - Pass Details

Date: 08 December 2019
Orbit: 823 x 837 km, 98.4° (Epoch: 22 January)

Event Time Altitude Azimuth Distance (km) Brightness Sun altitude
Rises 05:54:29 0° 7° (N) 3,382 6.7 -11.1°
Reaches altitude 10° 05:56:59 10° 359° (N) 2,442 5.9 -10.7°
Maximum altitude 06:01:53 37° 294° (WNW) 1,275 4.1 -9.9°
Drops below altitude 10° 06:06:45 10° 229° (SW) 2,421 5.8 -9.2°
Sets 06:09:14 0° 221° (SW) 3,348 6.6 -8.8°
